Location: Bonac
(42.8765°N, 0.9753°E)
Time: 11:04:05
(UTC+00:00)

USA 238 DEB - Pass Details

Date: 12 January 2026
Orbit: 883 x 1328 km, 63.4° (Epoch: 10 January)

Event Time Altitude Azimuth Distance (km) Brightness Sun altitude
Rises 18:38:25 0° 324° (NW) 3,981 7.0 -20.5°
Reaches altitude 10° 18:41:01 10° 325° (NW) 3,078 6.4 -21.0°
Maximum altitude 18:48:32 82° 53° (NE) 1,264 3.9 -22.3°
Enters shadow 18:56:31 11° 142° (SE) 3,269 5.9 -23.8°
